Regional Weather Roundup
Issued by NWS

Home | Current Version | Previous Version | Graphics & Text | Print | Product List | Glossary On
Versions: 1 2 3 4 5 6 7 8 9 10 11 12 13 14 15 16 17 18 19 20 21 22 23 24 25 26 27 28 29 30 31 32 33 34 35 36 37 38 39 40 41 42 43 44 45 46 47 48 49 50
000
ASUS45 KBOU 231707
RWRCO

WEATHER ROUNDUP FOR COLORADO
NATIONAL WEATHER SERVICE DENVER/BOULDER CO
1000 AM MST THU FEB 23 2017

NOTE: "FAIR" INDICATES FEW OR NO CLOUDS BELOW 12000 FEET WITH NO
SIGNIFICANT WEATHER AND/OR OBSTRUCTIONS TO VISIBILITY.

COZ001>005-013-030-031-231800-
...NORTHWEST COLORADO...

CITY           SKY/WX    TMP DP  RH WIND       PRES   REMARKS
CRAIG          LGT SNOW  25  18  74 W18       29.59R WCI  11
HAYDEN         FAIR      23  16  74 W23       29.55R WCI   7
MEEKER         CLOUDY    26  16  65 NW10      29.61R WCI  16
MOUNT WERNER   NOT AVBL
STEAMBOAT SPGS CLOUDY    25  17  72 SW10G20   29.54R WCI  14
WALDEN         NOT AVBL
$$

COZ006>008-011-231800-
...WEST CENTRAL VALLEYS...

CITY           SKY/WX    TMP DP  RH WIND       PRES   REMARKS
GRAND JUNCTION FAIR      38  11  32 W14G23    29.67R
MONTROSE       FAIR      34  14  43 W26G37    29.67R WCI  21
EAGLE          PTSUNNY   30  18  59 W14G20    29.57R WCI  20
RIFLE          FLURRIES  29  23  78 W17G28    29.62R WCI  17
DELTA          FAIR      40  11  30 W13G20    29.66R
NUCLA          FAIR      34   5  29 W15G28    29.73R WCI  24
$$

COZ017>023-064>068-231800-
...SOUTHWEST COLORADO...

CITY           SKY/WX    TMP DP  RH WIND       PRES   REMARKS
DURANGO        FAIR      30  19  63 W23G32    29.68R WCI  17
CORTEZ         FAIR      36  18  48 W17G24    29.73R
PAGOSA SPRINGS PTSUNNY   30  18  60 SW14G26   29.64F WCI  19
TELLURIDE      LGT SNOW  17   8  68 W8G24     29.66R WCI   6
WOLF CREEK PAS HVY SNOW   9   7  92 S32G49    29.52F VSB<1/4 WCI -15
$$

COZ009-010-012-014-032>034-037-058>063-231800-
...CENTRAL COLORADO...

CITY           SKY/WX    TMP DP  RH WIND       PRES   REMARKS
ASPEN          LGT SNOW  24  18  77 N14G22    29.52R WCI  12
BUENA VISTA    CLOUDY    31  18  60 NW14      29.48S WCI  20
COPPER MTN     NOT AVBL
BERTHOUD PASS  HVY SNOW   9  -2  61 MISG      29.42S VSB<1/4
COTTONWOOD PAS CLOUDY    27   3  36 W32G55    29.45R HAZE    WCI  10
GUNNISON       FAIR      25  15  66 SW22G29   29.58R WCI  10
KREMMLING      FAIR      36  18  48 W16G24    29.49R
LEADVILLE      PTSUNNY   20   0  41 W8        29.45S WCI  10
MONARCH PASS   CLOUDY     9   5  85 W47G59    29.54S WCI -18
SALIDA         PTSUNNY   33  14  45 W17G26    29.56F WCI  22
SUNLIGHT       NOT AVBL
WILKERSON PASS CLOUDY    18  14  86 SW13G24   29.45S WCI   4
$$

COZ069>075-231800-
...SAN LUIS VALLEY/SANGRE DE CRISTO MOUNTAINS...

CITY           SKY/WX    TMP DP  RH WIND       PRES   REMARKS
ALAMOSA        FAIR      34  13  41 SW30G39   29.57R WCI  20
LA VETA PASS   CLOUDY    21  14  73 NE41G56   29.47R WCI   0
SAGUACHE       FLURRIES  30  23  74 NW14      29.53R WCI  20
$$

COZ035-036-038>040-231800-
...NORTHERN COLORADO FRONT RANGE...

CITY           SKY/WX    TMP DP  RH WIND       PRES   REMARKS
DENVER INTL AP LGT SNOW  29  25  85 E8        29.53R VSB 1   WCI  21
DMNS CITY PARK   N/A     30  22  72 N3        29.53S
AURORA         CLOUDY    29  22  76 S6        29.52S WCI  23
FRONT RANGE AP CLOUDY    30  28  93 SE7       29.53F FOG     WCI  23
ERIE MUNI ARPT LGT SNOW  30  29  95 N6        29.55S WCI  24
BOULDER MUN AP SNOW      30  30 100 N3        29.55R VSB 1/2
CENTENNIAL     CLOUDY    29  22  75 N10       29.51R WCI  20
BROOMFIELD     LGT SNOW  30  27  86 NW7       29.54S WCI  23
FORT COLLINS   SNOW      30  28  92 E15       29.57F VSB 1/2 WCI  19
LONGMONT       SNOW      34  31  90 CALM      29.57F VSB 1/4
$$

COZ041-046-047-076>085-087-088-231800-
...PIKES PEAK/PALMER DIVIDE AND SOUTHERN FOOTHILLS...

CITY           SKY/WX    TMP DP  RH WIND       PRES   REMARKS
COLO. SPRINGS  PTSUNNY   37  21  52 NW8       29.47S
A. F. ACADEMY  MIX PCPN  30  21  69 N15       29.48R WCI  19
SCHRIEVER AFB  FAIR      35  20  56 NE14G24   29.47S WCI  25
ELLICOTT       FAIR     N/A N/A N/A NE13      29.47R
FALCON         FAIR      35  21  57 N9        29.46S WCI  28
FORT CARSON    FAIR      38  21  50 NW12      29.45F
LIMON          CLOUDY    30  30 100 E13       29.50S FOG     WCI  20
MONUMENT HILL  CLOUDY    28  21  74 NW10      29.48F WCI  19
TRINIDAD       FAIR      54  13  19 W40G52    29.44F
$$

COZ042>045-048>051-090-091-231800-
...NORTHEAST COLORADO...

CITY           SKY/WX    TMP DP  RH WIND       PRES   REMARKS
GREELEY ARPT   LGT SNOW  30  29  96 E14       29.59R FOG     WCI  19
AKRON          FRZ RAIN  29  27  92 NE22G29   29.54F FOG     WCI  15
BURLINGTON     FOG       34  34 100 E20       29.51F VSB 1/4 WCI  23
WRAY           NOT AVBL
STERLING       NOT AVBL
HOLYOKE        LGT SNOW  34  32  93 NE17      29.61F WCI  23
FORT MORGAN    LGT SNOW  30  29  95 NE17G24   29.57S WCI  19
$$

COZ086-089-092>099-231800-
...SOUTHEAST COLORADO...

CITY           SKY/WX    TMP DP  RH WIND       PRES   REMARKS
PUEBLO         PTSUNNY   43  23  45 VRB7      29.46F
LA JUNTA       FAIR      45  26  47 NE9       29.45F
LAMAR          FAIR      48  30  49 E9        29.44F
SPRINGFIELD      N/A     63  24  22 SW22G33   29.42F
$$



USA.gov is the U.S. government's official web portal to all federal, state and local government web resources and services.